Regional Weather Roundup
Issued by NWS

Home | Current Version | Previous Version | Graphics & Text | Print | Product List | Glossary On
Versions: 1 2 3 4 5 6 7 8 9 10 11 12 13 14 15 16 17 18 19 20 21 22 23 24 25 26 27 28 29 30 31 32 33 34 35 36 37 38 39 40 41 42 43 44 45 46 47 48 49 50
000
ASUS43 KMPX 191901
RWRMN
WEATHER ROUNDUP FOR MINNESOTA
NATIONAL WEATHER SERVICE TWIN CITIES/CHANHASSEN MN
100 PM CST SUN NOV 19 2017


NOTE: "FAIR" INDICATES FEW OR NO CLOUDS BELOW 12,000 FEET WITH NO
SIGNIFICANT WEATHER AND/OR OBSTRUCTIONS TO VISIBILITY. N/A MEANS
CURRENT SKY AND/OR WEATHER CONDITIONS ARE NOT AVAILABLE.

MNZ060>063-068>070-192000-
   Twin Cities Metro

CITY           SKY/WX    TMP DP  RH WIND       PRES   REMARKS
TWIN CITIES    PTSUNNY   35  19  52 SW5       29.96F WCI  31
ST PAUL        CLOUDY    34  17  50 S8        29.98F WCI  27
CRYSTAL        CLOUDY    34  16  47 S7        29.95F WCI  28
BLAINE         PTSUNNY   30  18  59 S8        29.95F WCI  23
LAKEVILLE      SUNNY     37  21  52 SW6       29.97F
EDEN PRAIRIE   CLOUDY    37  19  48 SW8       29.96F
SOUTH ST PAUL  PTSUNNY   34  17  50 S6        29.97F WCI  28
LAKE ELMO      FAIR      32  18  55 SW7       29.97F WCI  26
$$
MNZ001>005-007-008-013>017-022>024-027-028-192000-
   Northwest Minnesota

CITY           SKY/WX    TMP DP  RH WIND       PRES   REMARKS
BEMIDJI        SUNNY     28  17  63 SW5       29.83F WCI  22
HALLOCK        SUNNY     25  19  80 S8        29.82F WCI  16
ROSEAU         CLOUDY    25  16  68 CALM      29.82F
WARROAD        SUNNY     21  14  73 CALM      29.83F
CROOKSTON      SUNNY     32  21  64 SW7       29.82F WCI  26
FOSSTON        SUNNY     34  21  60 S10       29.82F WCI  26
DETROIT LAKES  SUNNY     36  25  64 SW7       29.83F
MOORHEAD       SUNNY     39  25  56 S10       29.84F
PARK RAPIDS    SUNNY     35  22  58 SW9       29.83F WCI  28
MAHNOMEN       FAIR      33  22  64 SW12      29.83F WCI  24
$$
MNZ006-009>011-018-025>026-192000-
   North Central Minnesota

CITY           SKY/WX    TMP DP  RH WIND       PRES   REMARKS
BAUDETTE       CLOUDY    19  12  74 S6        29.82F WCI  11
FLAG ISLAND    CLOUDY    21  10  63 CALM      29.82F
INTL FALLS     CLOUDY    19   8  62 W8        29.85F WCI   9
WASKISH        CLOUDY    25  14  63 CALM      29.84F
BIG FORK       CLOUDY    21  12  68 CALM      29.85F
LONGVILLE      CLOUDY    28  16  59 S6        29.85F WCI  22
GRAND RAPIDS   CLOUDY    22  13  68 S5        29.89F WCI  16
CRANE LAKE     CLOUDY    18   7  62 W5        29.89F WCI  11
ORR            LGT SNOW  18   9  68 SW3       29.84F
COOK           LGT SNOW  18  10  73 SW6       29.88F WCI   9
WALKER         FAIR      28  17  61 S6        29.84F WCI  22
$$
MNZ012-019>021-037-192000-
   Northeast Minnesota

CITY           SKY/WX    TMP DP  RH WIND       PRES   REMARKS
DULUTH         FLURRIES  20  12  71 W9        29.87F WCI   9
ELY            CLOUDY    18   7  62 W10       29.86S WCI   6
HIBBING        LGT SNOW  18  13  80 S3        29.88F
EVELETH        LGT SNOW  18  10  73 SW6       29.89F WCI   9
DULUTH HARBOR  CLOUDY    25  12  58 SW10      29.94F WCI  15
TWO HARBORS    CLOUDY    27  12  54 W9        29.88S WCI  17
SILVER BAY     MOSUNNY   23   9  54 W3        29.86F
GRAND MARAIS     N/A     25  13  60 W12       29.87F WCI  14
G MARAIS ARPRT PTSUNNY   18   3  53 W9        29.79F WCI   6
$$
MNZ029>031-032-039>041-046>048-054>057-064-192000-
   West Central Minnesota

CITY           SKY/WX    TMP DP  RH WIND       PRES   REMARKS
FERGUS FALLS   SUNNY     39  25  56 S8        29.88F
WHEATON        SUNNY     46  23  39 SW15      29.87F
MORRIS         SUNNY     46  27  46 SW12      29.87F
ALEXANDRIA     SUNNY     38  24  57 SW12      29.88F
ELBOW LAKE     FAIR      40  26  56 W10       29.87F
WADENA         SUNNY     36  21  55 SW7       29.84F
GLENWOOD       SUNNY     39  25  56 SW15      29.89F
APPLETON       SUNNY     48  23  37 W12       29.89F
BENSON         SUNNY     46  25  42 W10       29.91F
ORTONVILLE     SUNNY     48  25  40 MISG      29.89F
MADISON        SUNNY     50  27  40 SW15      29.90F
WILLMAR        FAIR      43  28  56 SW9       29.93F
$$
MNZ033>034-036-042>043-049>051-058-059-192000-
   Central Minnesota

CITY           SKY/WX    TMP DP  RH WIND       PRES   REMARKS
ST CLOUD       PTSUNNY   34  21  59 S7        29.91F WCI  28
SAUK CENTRE    FAIR      37  25  60 SW7       29.89F
PAYNESVILLE    SUNNY     38  28  65 S9        29.91F
AITKIN         CLOUDY    28  16  59 S5        29.87F WCI  23
PINE RIVER     CLOUDY    30  18  59 S5        29.89F WCI  25
BRAINERD       SUNNY     33  18  53 S8        29.88F WCI  26
STAPLES        SUNNY     36  19  51 SW8       29.86F
LONG PRAIRIE   CLOUDY    36  25  64 CALM      29.90F
LITTLE FALLS   MOSUNNY   34  14  44 S8        29.90F WCI  27
LITCHFIELD     SUNNY     41  27  56 SW5       29.93F
BUFFALO        SUNNY     36  22  56 S9        29.95F
MAPLE LAKE     MOSUNNY   38  24  59 S7        29.94F
HUTCHINSON     SUNNY     42  26  55 SW8       29.96F
$$
MNZ037-044-045-052-053-192000-
   East Central Minnesota

CITY           SKY/WX    TMP DP  RH WIND       PRES   REMARKS
PRINCETON      SUNNY     36  19  51 S5        29.93F
MORA           SUNNY     32  19  59 S9        29.94F WCI  24
CAMBRIDGE      SUNNY     34  19  55 S6        29.94F WCI  29
RUSH CITY      SUNNY     31  17  54 S7        29.94F WCI  25
MOOSE LAKE     CLOUDY    27  14  59 SW7       29.89F WCI  19
HINCKLEY       FAIR      30  18  59 S7        29.93F WCI  23
CLOQUET        CLOUDY    23  10  58 SW5       29.89F WCI  17
MCGREGOR       CLOUDY    28  18  64 S6        29.89F WCI  22
$$
MNZ071>073-080-081-089-090-097-098-192000-
   Southwest Minnesota

CITY           SKY/WX    TMP DP  RH WIND       PRES   REMARKS
MONTEVIDEO     SUNNY     50  28  43 W13       29.91F
GRANITE FALLS  SUNNY     51  27  40 SW17      29.94F
CANBY          SUNNY     48  26  41 SW13G23   29.92F
MARSHALL       SUNNY     47  25  42 W21G29    29.93F
REDWOOD FALLS  SUNNY     49  24  37 W10       29.93F
OLIVIA         SUNNY     45  28  53 SW13      29.92F
PIPESTONE      SUNNY     46  23  39 SW15      29.94F
WINDOM         SUNNY     48  27  43 SW14      29.96F
WORTHINGTON    SUNNY     44  25  47 SW16      29.97F
JACKSON        SUNNY     46  23  39 W20       29.98F
SLAYTON        SUNNY     44  26  48 SW17      29.97F
$$
MNZ065>067-074>077-082>085-091>093-192000-
   South Central Minnesota

CITY           SKY/WX    TMP DP  RH WIND       PRES   REMARKS
MANKATO        SUNNY     40  23  50 SW10      29.98F
NEW ULM        SUNNY     46  25  42 W9        29.95F
ST JAMES       SUNNY     48  25  40 SW17      29.97F
FAIRMONT       SUNNY     45  25  45 SW15      29.98F
GLENCOE        SUNNY     41  26  55 S12       29.95F
FARIBAULT      SUNNY     37  21  52 S9        29.98F
OWATONNA       SUNNY     39  25  56 SW14      29.99F
WASECA         SUNNY     39  25  56 SW9       30.01F
ALBERT LEA     SUNNY     37  21  52 SW12      30.00F
$$
MNZ078>079-086>088-094>096-192000-
   Southeast Minnesota

CITY           SKY/WX    TMP DP  RH WIND       PRES   REMARKS
ROCHESTER      SUNNY     34  21  59 SW14      29.99F WCI  25
RED WING       CLOUDY    34  12  40 SW5       29.98F WCI  30
STANTON        SUNNY     37  21  52 SW8       29.97F
DODGE CENTER   SUNNY     34  19  55 SW15      29.98F WCI  24
WINONA           N/A     34  18  51 CALM      30.02F
AUSTIN         SUNNY     36  19  51 SW12      30.01F
PRESTON        SUNNY     33  18  53 W9        30.01F WCI  25
$$
ABBREVIATIONS USED IN REMARKS
   TC - TEMPERATURES IN CELSIUS
  WCI - WIND CHILL INDEX
   HX - HEAT INDEX
  VSB - VISIBILITY
$$




USA.gov is the U.S. government's official web portal to all federal, state and local government web resources and services.